Location: Unspecified
(52.1384°N, 8.6525°W)
Time: 15:05:06
(UTC+00:00)

XW-2F - Pass Details

Date: 20 January 2021
Orbit: 500 x 520 km, 97.5° (Epoch: 06 March)

Event Time Altitude Azimuth Distance (km) Brightness Sun altitude
Rises 18:56:51 0° 210° (SSW) 2,604 ? -17.3°
Reaches altitude 10° 18:59:40 10° 235° (SW) 1,731 ? -17.7°
Maximum altitude 19:01:52 15° 271° (W) 1,450 ? -18.0°
Drops below altitude 10° 19:04:06 10° 307° (NW) 1,747 ? -18.4°
Sets 19:06:59 0° 332° (NNW) 2,646 ? -18.8°
